SL-14 DEB, 45299

Orbit data source: Space-Track

SL-14 DEB, 45299 is space debris in LEO originally from a launch on Thu, 15 Aug 1991 UTC launched from the Plesetsk Missile And Space Complex (PKMTR). Debris objects in space refer to the collection of defunct objects orbiting the Earth. Examples of debris include non-operational satellites, rocket bodies, and fragments generated from explosions, collisions, or faulty payload assembly.

Loading next visibility...
Identifier
45299, 1991-056AM
Orbit
LEO
Country
Flag of CISCIS
Related business
Manufacturer
Unknown
Mission
Spacecraft
Bus & Motor
Unknown
Mass
Unknown
Launch date (UTC)
1991-08-15 (34 years ago)
Launch vehicle
Unknown
Launch site
Plesetsk Missile And Space Complex (PKMTR)
Object type
Payload
Rocket body
Debris
Shape & HBR
Unknown
Radar Cross Section
Medium (>0.1 m² and <1 m²)

Expand to show TLE details & history
Last TLE update: 21 hours ago

TLE from 21 hours ago
0 SL-14 DEB
1 45299U 91056AM  25242.12036569 -.00001637  00000-0 -45087-2 0  9992
2 45299  82.6341  19.0490 0091491  23.7181 336.8115 13.12179740264592
Epoch: 2025-08-30T02:53Z
TLE epoch observation values (Epoch: 2025-08-30T02:53:19.595Z)
Latitude
-0.00003°
Longitude
-2.84187°
Altitude
1,153.774 km
Speed
7.307 km/s
True Right ascension
01h 16m 11s
True Declination
0° 00' 00"
Sunlit
Object was in full shadow at epoch
Visualization orbit readout
Latitude
Unknown
Longitude
Unknown
Altitude
Unknown
Speed
Unknown
Apparent Right ascension
Unknown
Apparent Declination
Unknown
Sunlit
N/A
Visualization observer readout
Local Sidereal Time
15:54:33
Azimuth
Unknown
Elevation
Unknown
Doppler factor
Unknown
Orbital elements
Apogee altitude
1,281.429 km
Perigee altitude
1,142.544 km
Semi-major axis
7,590.124 km
Eccentricity
0.00915
Inclination
82.6341°
RAAN
19.049°
Arg. of periapsis
23.7181°
True anomaly
336.3943°
Mean anomaly
336.8115°
Eccentric anomaly
336.60334°
Mean motion
3.28224 °/min
Orbital period
109.68 mins
BSTAR
-0.0045087
Loading maneuver chart data...
Computing Atmospheric mass density...
Loading historical data...
Loading historical data...
Loading historical data...
Loading historical data...
Loading historical data...
Loading historical data...
Loading historical data...

Documentation

Showing up to 5 results
|